Location: Norton
(51.3000°N, 0.8167°E)
Time: 12:28:04
(UTC+00:00)

SKYMED 2 - Pass Details

Date: 03 March 2021
Orbit: 621 x 623 km, 97.9° (Epoch: 11 April)

Event Time Altitude Azimuth Distance (km) Brightness Sun altitude
Rises 18:33:06 0° 11° (N) 2,917 6.9 -8.9°
Reaches altitude 10° 18:35:18 10° 8° (N) 2,006 6.1 -9.3°
Maximum altitude 18:39:37 62° 289° (WNW) 703 4.2 -9.9°
Drops below altitude 10° 18:43:53 10° 208° (SSW) 1,989 6.5 -10.6°
Sets 18:46:05 0° 205° (SSW) 2,891 7.3 -10.9°
